Wind_Speed
46 47 47 49 50 52 54 55 56 56 58 59 60 60 61 62 63 63 63 63 64 64 65 65 65 66 66 67 68 68 67 67 67 66 66 66 66 66
47 47 49 50 52 53 53 54 55 55 57 58 58 59 59 59 59 59 60 60 60 61 61 61 62 62 62 62 62 62 62 62 62 61 61 62 63 62
47 48 49 50 51 51 51 52 53 54 54 54 54 54 54 54 55 55 55 55 56 56 56 56 56 56 56 56 56 56 55 55 55 55 56 56 56 56
47 48 48 49 50 50 50 51 50 50 49 48 48 48 48 48 48 49 50 50 50 50 50 50 50 50 50 50 50 49 49 49 48 48 50 52 52 52
46 47 48 48 48 48 48 47 45 44 44 43 43 43 43 43 42 43 43 44 44 44 43 43 43 43 43 43 43 42 42 42 42 43 44 45 46 47
45 45 45 45 45 44 43 42 41 40 40 40 40 39 39 38 38 37 37 38 37 37 37 37 36 36 36 36 35 35 36 37 37 38 39 40 41 42
43 42 42 41 41 40 39 38 38 37 37 36 36 35 34 33 33 33 32 32 31 31 30 30 30 30 30 30 30 30 31 32 32 33 34 35 36 37
39 38 38 37 36 35 34 34 33 32 31 31 30 29 28 27 27 27 27 26 26 26 26 26 26 26 26 26 26 27 27 28 29 30 30 31 32 33
35 34 33 32 30 29 29 27 26 25 25 24 24 23 24 24 24 24 24 24 23 23 23 23 24 23 23 22 22 23 24 25 26 26 27 28 30 31
29 28 27 26 25 25 23 22 21 22 22 21 21 21 22 22 22 22 22 22 22 21 21 21 22 22 22 22 21 22 22 23 24 24 25 25 26 27
24 23 22 21 21 20 19 19 20 20 20 19 20 21 21 21 22 22 21 21 20 20 20 20 20 21 21 21 20 20 21 21 22 22 23 24 24 25
19 19 18 18 18 18 18 18 18 18 18 19 19 20 20 20 21 21 21 20 20 20 20 20 19 19 19 20 20 20 20 20 20 21 22 23 23 23
16 16 16 16 16 16 17 17 17 17 18 18 19 19 19 20 20 20 21 20 21 21 20 19 19 19 19 19 20 20 20 20 21 21 22 22 21 21
14 14 14 14 15 16 16 17 17 17 17 17 18 18 19 19 19 20 20 21 21 20 20 19 19 19 19 19 20 20 21 21 21 22 23 22 22 21
12 12 13 14 15 15 16 16 17 17 17 17 17 18 18 18 18 19 20 20 20 20 20 19 19 19 19 19 20 20 21 22 22 22 23 22 22 21
11 12 13 14 14 15 16 16 17 17 16 16 16 17 17 18 18 18 18 18 18 19 19 19 19 19 19 20 21 21 22 23 24 24 24 23 22 21
11 12 14 15 15 16 15 15 16 16 16 15 15 15 16 17 17 16 16 16 16 17 18 18 18 19 19 19 21 22 24 24 25 26 25 24 22 21
11 12 13 14 15 15 15 15 16 16 16 15 15 15 15 15 16 15 15 15 15 15 16 17 18 18 18 19 21 23 24 25 26 27 27 25 23 22
11 13 13 14 14 14 15 15 15 15 15 15 15 14 14 14 14 14 14 14 14 14 15 16 16 17 17 19 21 23 25 26 27 28 28 27 25 24
12 12 13 13 14 14 15 15 15 15 15 15 15 14 13 13 12 12 13 13 13 14 14 15 15 16 17 18 20 22 24 25 26 27 28 28 27 26
11 12 12 13 14 14 15 15 15 15 15 14 14 13 13 12 11 11 12 12 12 13 13 14 15 15 16 18 20 22 23 25 26 27 27 28 28 27
11 11 12 13 14 14 15 15 15 15 14 14 13 13 12 11 11 11 11 11 12 12 12 13 14 14 15 17 19 21 23 24 26 26 26 27 28 27
11 11 12 13 14 14 14 15 15 15 14 13 12 12 12 11 11 11 11 11 11 11 12 12 13 14 15 16 18 20 22 23 24 25 26 27 28 28
Wind_Direction
293 292 292 293 293 292 291 290 289 288 287 286 285 285 284 283 283 281 280 280 279 279 279 279 279 279 278 277 276 276 276 275 274 273 271 270 270 268
293 293 294 294 294 293 292 290 290 289 288 288 287 286 286 286 284 283 282 282 281 281 280 280 280 281 281 280 279 278 278 277 276 274 272 271 270 269
294 294 294 295 294 293 292 292 291 291 290 289 289 289 288 288 287 286 286 285 285 284 284 283 283 282 282 282 282 281 280 279 278 276 273 271 270 269
294 294 295 295 295 294 294 293 293 293 292 292 292 292 292 291 291 289 289 289 289 289 289 288 287 285 285 284 283 282 282 280 278 277 275 273 271 269
296 296 296 297 296 296 296 296 296 297 297 296 295 295 296 296 295 294 293 293 294 293 293 292 291 288 287 287 286 285 284 283 281 280 278 276 273 271
297 298 298 298 298 298 298 298 299 299 299 298 298 298 299 299 299 299 298 298 297 297 297 297 296 294 291 289 288 287 286 285 285 284 281 279 277 274
299 299 299 300 300 301 300 301 301 301 301 301 301 302 302 302 302 302 302 302 302 302 303 303 302 300 297 295 293 291 290 289 288 287 285 283 280 277
301 301 302 302 303 303 303 304 304 305 306 307 307 308 309 311 312 312 311 310 310 310 310 310 310 309 305 302 300 298 295 293 292 291 289 287 285 282
303 304 305 306 306 308 309 310 312 314 315 316 317 318 320 321 321 322 321 320 318 318 318 319 318 316 314 311 308 305 303 301 299 298 296 293 290 287
307 309 311 312 313 315 317 319 321 322 323 324 326 328 330 332 332 332 331 329 327 326 326 327 325 323 320 318 317 315 313 311 309 307 306 303 299 295
314 316 317 318 321 323 325 327 329 330 330 332 335 338 340 341 341 341 340 339 337 335 334 334 333 332 331 329 327 326 324 321 318 315 312 310 308 304
318 321 322 325 328 330 332 335 337 339 341 344 345 346 345 344 344 345 346 346 346 345 344 343 342 342 342 340 338 335 334 332 328 324 321 318 315 311
322 324 327 328 332 334 336 339 342 344 347 349 350 349 348 347 347 347 348 349 349 350 351 351 351 351 350 349 347 346 345 343 340 336 332 329 324 320
324 328 331 332 334 337 340 343 345 347 349 350 350 350 350 350 349 350 351 352 353 355 356 356 356 355 354 355 353 351 349 348 345 342 339 336 333 329
326 329 331 333 336 339 341 343 345 347 348 348 349 350 350 351 350 350 352 353 355 357 359 359 359 358 359 360 359 358 356 354 352 349 347 345 342 338
327 330 332 335 337 338 339 340 341 343 344 344 345 346 347 348 349 349 352 355 358 0 1 3 4 4 5 5 5 5 5 3 1 358 355 353 351 348
329 332 334 335 335 336 337 338 338 338 339 341 341 342 344 346 348 349 351 354 357 1 4 6 7 9 10 10 10 11 10 9 7 5 3 1 0 359
328 332 333 333 334 335 337 338 338 337 338 339 340 340 342 345 348 350 352 355 357 -0 4 6 8 10 9 10 12 13 12 12 11 11 10 9 9 10
330 331 332 334 335 336 337 339 340 340 340 340 341 341 343 345 348 351 354 356 359 1 4 6 8 10 10 11 13 14 14 13 14 15 16 17 18 19
332 332 333 336 338 338 338 340 342 342 341 342 343 343 344 347 349 351 354 358 1 3 5 7 9 12 13 13 13 13 15 15 16 18 20 22 24 26
336 337 339 341 342 342 342 342 343 343 344 346 347 348 349 351 351 351 354 358 2 4 6 8 10 13 15 16 15 16 17 19 20 22 25 27 29 33
343 344 344 344 345 344 344 345 345 346 348 349 350 352 355 356 355 356 358 0 3 7 11 13 14 16 18 18 19 20 22 24 26 28 31 33 36 38
347 348 347 347 347 347 347 347 349 350 352 354 357 359 1 2 2 3 5 7 10 13 16 18 18 19 20 20 22 25 28 30 30 32 34 37 38 40
Height
5778 5774 5771 5767 5763 5759 5754 5750 5746 5741 5735 5729 5724 5718 5713 5709 5704 5700 5695 5691 5687 5683 5679 5675 5671 5668 5665 5663 5661 5660 5658 5657 5656 5655 5654 5654 5655 5656
5766 5762 5758 5754 5749 5744 5740 5734 5729 5725 5720 5713 5707 5701 5696 5691 5686 5681 5677 5673 5669 5665 5661 5657 5654 5650 5647 5645 5642 5640 5638 5637 5636 5634 5634 5635 5635 5636
5754 5750 5745 5741 5736 5731 5725 5720 5714 5709 5704 5698 5691 5685 5680 5675 5670 5665 5660 5656 5652 5648 5645 5641 5637 5634 5631 5628 5626 5624 5622 5620 5618 5617 5616 5616 5616 5618
5742 5738 5733 5728 5723 5717 5711 5705 5700 5694 5689 5684 5677 5672 5666 5661 5656 5651 5646 5642 5638 5634 5630 5627 5623 5620 5617 5614 5612 5609 5607 5605 5603 5602 5601 5601 5601 5601
5730 5725 5720 5715 5710 5704 5698 5692 5686 5681 5676 5671 5665 5660 5654 5649 5644 5639 5634 5630 5625 5621 5618 5615 5611 5608 5604 5602 5599 5597 5594 5592 5591 5589 5587 5586 5586 5586
5718 5713 5708 5702 5697 5691 5686 5680 5675 5669 5664 5659 5655 5649 5644 5639 5634 5629 5625 5620 5616 5612 5608 5605 5601 5597 5594 5591 5589 5586 5584 5581 5579 5577 5575 5574 5573 5572
5707 5702 5696 5691 5686 5680 5675 5670 5664 5659 5654 5649 5645 5640 5635 5630 5625 5621 5617 5612 5608 5604 5600 5596 5592 5589 5585 5582 5579 5577 5575 5572 5570 5567 5565 5563 5561 5560
5696 5691 5686 5681 5676 5671 5666 5660 5655 5651 5646 5641 5636 5632 5627 5623 5618 5614 5610 5606 5602 5599 5594 5590 5586 5582 5578 5575 5572 5569 5567 5564 5561 5559 5556 5553 5551 5549
5687 5682 5677 5673 5668 5663 5658 5653 5648 5644 5639 5635 5631 5626 5622 5618 5613 5609 5604 5600 5597 5593 5589 5585 5581 5577 5573 5569 5566 5563 5560 5557 5554 5551 5548 5545 5542 5539
5679 5674 5670 5666 5662 5657 5652 5648 5643 5639 5635 5631 5627 5622 5618 5614 5609 5605 5601 5597 5593 5588 5585 5581 5577 5573 5569 5565 5561 5557 5554 5550 5547 5544 5540 5537 5533 5530
5673 5669 5665 5661 5657 5653 5649 5644 5640 5636 5632 5628 5624 5620 5615 5611 5607 5603 5598 5594 5590 5586 5582 5578 5574 5569 5565 5561 5557 5553 5549 5545 5542 5538 5534 5530 5526 5522
5669 5665 5661 5658 5654 5650 5646 5642 5638 5634 5630 5626 5622 5618 5613 5609 5605 5601 5597 5592 5588 5584 5580 5576 5571 5567 5563 5559 5554 5550 5545 5541 5537 5533 5529 5525 5520 5516
5665 5662 5659 5655 5652 5648 5644 5640 5636 5632 5628 5624 5620 5617 5612 5608 5604 5599 5595 5591 5587 5583 5578 5574 5570 5565 5561 5557 5553 5548 5543 5539 5534 5529 5525 5520 5516 5511
5662 5660 5657 5654 5650 5647 5643 5639 5635 5631 5627 5623 5620 5616 5612 5608 5603 5599 5595 5591 5586 5582 5577 5573 5569 5565 5560 5556 5552 5547 5542 5537 5532 5527 5522 5516 5511 5507
5660 5658 5655 5652 5648 5645 5641 5637 5634 5630 5626 5623 5619 5615 5611 5607 5603 5599 5595 5591 5586 5582 5578 5573 5569 5565 5560 5556 5552 5547 5542 5536 5531 5525 5520 5514 5508 5503
5658 5656 5653 5650 5647 5643 5640 5636 5632 5629 5625 5621 5618 5614 5610 5606 5603 5599 5595 5591 5587 5583 5578 5574 5570 5565 5561 5557 5552 5547 5542 5536 5531 5524 5518 5512 5507 5501
5656 5654 5651 5648 5645 5642 5638 5635 5631 5628 5624 5620 5617 5613 5610 5606 5602 5598 5595 5591 5587 5583 5579 5575 5571 5566 5562 5558 5553 5548 5543 5537 5531 5525 5518 5512 5506 5500
5654 5652 5649 5646 5643 5640 5637 5633 5630 5626 5623 5619 5615 5612 5609 5605 5601 5598 5595 5591 5587 5584 5580 5576 5572 5568 5564 5560 5555 5550 5544 5538 5532 5526 5519 5513 5507 5501
5653 5650 5648 5645 5642 5639 5635 5632 5629 5625 5621 5618 5614 5611 5608 5604 5601 5598 5595 5591 5588 5584 5581 5577 5573 5570 5566 5561 5557 5552 5546 5540 5534 5528 5522 5515 5509 5503
5651 5649 5646 5643 5640 5637 5634 5631 5627 5624 5620 5617 5613 5610 5607 5603 5600 5597 5594 5591 5588 5585 5582 5578 5575 5571 5567 5563 5559 5554 5549 5543 5537 5531 5525 5518 5512 5506
5650 5647 5645 5642 5639 5636 5633 5629 5626 5622 5619 5616 5612 5609 5606 5603 5600 5597 5595 5592 5589 5586 5582 5579 5576 5573 5569 5565 5561 5556 5551 5546 5541 5535 5529 5523 5517 5512
5648 5646 5644 5641 5638 5635 5632 5628 5625 5621 5618 5615 5612 5609 5605 5603 5600 5597 5595 5592 5589 5586 5583 5581 5578 5575 5571 5568 5564 5559 5555 5550 5544 5539 5534 5529 5524 5518
5648 5645 5643 5640 5637 5634 5631 5627 5624 5620 5617 5614 5611 5608 5605 5603 5600 5598 5595 5593 5590 5587 5585 5582 5579 5577 5574 5570 5567 5563 5558 5554 5549 5544 5540 5534 5529 5524